This is the latest recevied weather packets stored in our database for station/object KD8LPB. If no packets are shown the sender has not sent any weather packets the latest 10 day(s).
| Time | Temp. | Humidity | Pressure | Rain* | Wind** | Luminosity | Snow |
|---|---|---|---|---|---|---|---|
| 1777959041 | 4.44° C | 87% | 998 hPa | 0 mm | - | - | - |
| 1777954547 | 5° C | 84% | 996.9 hPa | 0 mm | - | - | - |
| 1777951838 | 5° C | 86% | 996.4 hPa | 0 mm | - | - | - |
| 1777936538 | 7.78° C | 83% | 994.7 hPa | 0 mm | - | - | - |
| 1777932940 | 7.78° C | 86% | 994.2 hPa | 0 mm | - | - | - |
| 1777929337 | 8.89° C | 85% | 993.4 hPa | 0 mm | - | - | - |
| 1777927546 | 7.78° C | 88% | 993 hPa | 0 mm | - | - | - |
| 1777924849 | 10° C | 82% | 993 hPa | 0 mm | - | - | - |
| 1777919438 | 8.33° C | 81% | 992.3 hPa | 0.25 mm | - | - | - |
| 1777916737 | 9.44° C | 75% | 992.9 hPa | 0.25 mm | - | - | - |
| 1777896047 | 2.22° C | 97% | 995.4 hPa | 0 mm | - | - | - |
| 1777894235 | 2.78° C | 98% | 995.9 hPa | 0 mm | - | - | - |
| 1777891541 | 2.22° C | 99% | 996.2 hPa | 0 mm | - | - | - |
| 1777887040 | 1.67° C | 99% | 997 hPa | 0 mm | - | - | - |
| 1777878040 | 2.78° C | 99% | 999 hPa | 0 mm | - | - | - |
| 1777871740 | 5° C | 95% | 1000.1 hPa | 0 mm | - | - | - |
| 1777866346 | 6.11° C | 96% | 1000.3 hPa | 0 mm | - | - | - |
| 1777862736 | 7.22° C | 95% | 1000.7 hPa | 0 mm | - | - | - |
| 1777860038 | 7.22° C | 95% | 1001 hPa | 0 mm | - | - | - |
| 1777853740 | 9.44° C | 84% | 1000.5 hPa | 0 mm | - | - | - |
| 1777851942 | 9.44° C | 84% | 1000.3 hPa | 0 mm | - | - | - |
| 1777841143 | 10° C | 74% | 1000.4 hPa | 0 mm | - | - | - |
| 1777840237 | 11.67° C | 69% | 1000.4 hPa | 0 mm | - | - | - |
| 1777828536 | 7.22° C | 78% | 1003.2 hPa | 0 mm | - | - | - |
| 1777822242 | 6.11° C | 79% | 1004.7 hPa | 0 mm | - | - | - |
* Rain latest hour (hover to see other rain measurements)
** Current wind speed in m/s (hover to see current wind gust speed)